Terug naar catalogus

COSMOS 1727

ActiefMilitairPO
NORAD 16510·PAYLOAD·🇷🇺 Russia

Gelanceerd Jan 23, 1986 vanaf Plesetsk Cosmodrome

Loading…

Volgende Passages (komende 24 uur)

TLE

VersSource: Space-Track

Epoch: Sep 14, 2026, 00:41 UTC

1 16510U 86008A   26257.02882954  .00000041  00000-0  27368-4 0  9990
2 16510  82.9436 267.2482 0037530 346.7507  41.7006 13.74690685 37892

Volg COSMOS 1727 in realtime met AllMySat

Download on the App Store